Weather History for Novato, CA

Change the Weather History Date:

Sunday, June 2, 2013

  Actual Average (KAPC) Record (KAPC)
Temperature  
Mean Temperature 68 °F 62 °F  
Max Temperature 84 °F 76 °F 90 °F (2003)
Min Temperature 51 °F 48 °F 40 °F (2008)
Degree Days  
Heating Degree Days 0    
Month to date heating degree days  
Since 1 June heating degree days  
Since 1 July heating degree days  
Cooling Degree Days 2    
Month to date cooling degree days  
Year to date cooling degree days  
Since 1 June cooling degree days  
Growing Degree Days 18 (Base 50)    
Moisture  
Dew Point 51 °F    
Average Humidity 63    
Maximum Humidity 100    
Minimum Humidity 30    
Precipitation  
Precipitation 0.00 in - 1.22 in (1967)
Month to date precipitation  
Year to date precipitation  
Since 1 July precipitation  
Sea Level Pressure  
Sea Level Pressure 29.73 in    
Wind  
Wind Speed 4 mph (East)    
Max Wind Speed 9 mph    
Max Gust Speed -    
Visibility 10 miles    
Events      
T = Trace of Precipitation, MM = Missing Value Source: NWS Daily Summary

Daily Weather History Graph

Daily Weather History Graph

Search for Another Location

Airport:

Trip Planner

Search our weather history database for the weather conditions in past years. The results will help you decide how hot, cold, wet, or windy it might be!

Date:

Astronomy

Jun. 02, 2013 Rise Set
Actual Time 5:48 AM PDT 8:28 PM PDT
Civil Twilight 5:17 AM PDT 8:59 PM PDT
Nautical Twilight 4:38 AM PDT 9:38 PM PDT
Astronomical Twilight 3:55 AM PDT 10:21 PM PDT
Moon 2:13 AM PDT (6/2) 3:08 PM PDT (6/2)
Length of Visible Light 15h 42m
Length of Day
14h 39m
Waning Crescent, 30% of the Moon is Illuminated
Jun 2
Waning Crescent
Jun 8
New
Jun 16
First Quarter
Jun 23
Full
Jun 29
Last Quarter

Hourly Weather History & Observations

Time (PDT) Temp. Heat Index Dew Point Humidity Pressure Visibility Wind Dir Wind Speed Gust Speed Precip Events Conditions
12:15 AM 60.8 °F - 48.2 °F 63% 29.79 in 10.0 mi ESE 5.8 mph - N/A   Clear
12:35 AM 60.8 °F - 48.2 °F 63% 29.78 in 10.0 mi SE 3.5 mph - N/A   Clear
12:55 AM 59.0 °F - 48.2 °F 67% 29.78 in 10.0 mi SE 4.6 mph - N/A   Clear
1:15 AM 59.0 °F - 48.2 °F 67% 29.78 in 10.0 mi SE 4.6 mph - N/A   Clear
1:35 AM 59.0 °F - 48.2 °F 67% 29.78 in 10.0 mi East 3.5 mph - N/A   Clear
1:55 AM 57.2 °F - 48.2 °F 72% 29.78 in 10.0 mi East 4.6 mph - N/A   Clear
2:15 AM 57.2 °F - 48.2 °F 72% 29.77 in 10.0 mi East 5.8 mph - N/A   Clear
2:35 AM 55.4 °F - 48.2 °F 77% 29.77 in 10.0 mi NE 5.8 mph - N/A   Clear
2:55 AM 57.2 °F - 48.2 °F 72% 29.77 in 10.0 mi ENE 3.5 mph - N/A   Clear
3:15 AM 55.4 °F - 48.2 °F 77% 29.77 in 10.0 mi ENE 5.8 mph - N/A   Clear
3:35 AM 53.6 °F - 48.2 °F 82% 29.77 in 10.0 mi Calm Calm - N/A   Clear
3:55 AM 55.4 °F - 48.2 °F 77% 29.77 in 10.0 mi Calm Calm - N/A   Clear
4:15 AM 53.6 °F - 48.2 °F 82% 29.77 in 10.0 mi Calm Calm - N/A   Clear
4:35 AM 53.6 °F - 48.2 °F 82% 29.77 in 10.0 mi Calm Calm - N/A   Clear
4:55 AM 51.8 °F - 48.2 °F 88% 29.77 in 10.0 mi Calm Calm - N/A   Clear
5:15 AM 53.6 °F - 48.2 °F 82% 29.77 in 10.0 mi Calm Calm - N/A   Clear
5:35 AM 53.6 °F - 48.2 °F 82% 29.77 in 10.0 mi Calm Calm - N/A   Clear
5:55 AM 53.6 °F - 48.2 °F 82% 29.78 in 10.0 mi Calm Calm - N/A   Clear
6:15 AM 51.8 °F - 48.2 °F 88% 29.78 in 10.0 mi Calm Calm - N/A   Clear
6:35 AM 53.6 °F - 48.2 °F 82% 29.78 in 10.0 mi Calm Calm - N/A   Clear
6:55 AM 53.6 °F - 50.0 °F 88% 29.78 in 10.0 mi Calm Calm - N/A   Clear
7:15 AM 55.4 °F - 48.2 °F 77% 29.78 in 10.0 mi Calm Calm - N/A   Clear
7:35 AM 55.4 °F - 50.0 °F 82% 29.79 in 9.0 mi Calm Calm - N/A   Clear
7:55 AM 57.2 °F - 50.0 °F 77% 29.78 in 10.0 mi Calm Calm - N/A   Clear
8:15 AM 59.0 °F - 50.0 °F 72% 29.78 in 8.0 mi Calm Calm - N/A   Clear
8:35 AM 60.8 °F - 50.0 °F 68% 29.79 in 10.0 mi Calm Calm - N/A   Clear
8:55 AM 62.6 °F - 50.0 °F 63% 29.78 in 10.0 mi Calm Calm - N/A   Clear
9:15 AM 64.4 °F - 50.0 °F 59% 29.78 in 10.0 mi Calm Calm - N/A   Clear
9:35 AM 66.2 °F - 48.2 °F 52% 29.77 in 10.0 mi Calm Calm - N/A   Clear
9:55 AM 71.6 °F - 48.2 °F 43% 29.76 in 10.0 mi North 3.5 mph - N/A   Clear
10:15 AM 71.6 °F - 48.2 °F 43% 29.76 in 10.0 mi NE 3.5 mph - N/A   Clear
10:35 AM 73.4 °F - 48.2 °F 41% 29.76 in 10.0 mi Calm Calm - N/A   Clear
10:55 AM 75.2 °F - 48.2 °F 38% 29.75 in 10.0 mi ENE 5.8 mph - N/A   Clear
11:15 AM 75.2 °F - 48.2 °F 38% 29.75 in 10.0 mi NNW 4.6 mph - N/A   Clear
11:35 AM 77.0 °F - 48.2 °F 36% 29.75 in 10.0 mi SSW 4.6 mph - N/A   Clear
11:55 AM 77.0 °F - 50.0 °F 39% 29.74 in 10.0 mi South 4.6 mph - N/A   Clear
12:15 PM 78.8 °F - 50.0 °F 36% 29.73 in 10.0 mi WSW 4.6 mph - N/A   Clear
12:35 PM 80.6 °F - 50.0 °F 34% 29.73 in 10.0 mi ESE 6.9 mph - N/A   Clear
12:55 PM 78.8 °F - 53.6 °F 42% 29.72 in 10.0 mi ESE 9.2 mph - N/A   Clear
1:15 PM 78.8 °F - 53.6 °F 42% 29.72 in 10.0 mi SE 8.1 mph - N/A   Clear
1:35 PM 80.6 °F 80.3 °F 53.6 °F 39% 29.71 in 10.0 mi SE 5.8 mph - N/A   Clear
1:55 PM 80.6 °F 80.3 °F 53.6 °F 39% 29.71 in 10.0 mi South 3.5 mph - N/A   Clear
2:15 PM 82.4 °F - 50.0 °F 32% 29.70 in 10.0 mi South 8.1 mph - N/A   Clear
2:35 PM 84.2 °F - 50.0 °F 30% 29.70 in 10.0 mi SSE 6.9 mph - N/A   Clear
2:55 PM 84.2 °F - 50.0 °F 30% 29.69 in 10.0 mi SW 8.1 mph - N/A   Clear
3:15 PM 84.2 °F - 50.0 °F 30% 29.69 in 10.0 mi SSW 4.6 mph - N/A   Clear
3:35 PM 84.2 °F - 51.8 °F 33% 29.69 in 10.0 mi WSW 5.8 mph - N/A   Clear
3:55 PM 84.2 °F - 51.8 °F 33% 29.68 in 10.0 mi East 5.8 mph - N/A   Clear
4:15 PM 84.2 °F 82.8 °F 53.6 °F 35% 29.68 in 10.0 mi NE 6.9 mph - N/A   Clear
4:35 PM 82.4 °F 81.7 °F 55.4 °F 39% 29.68 in 10.0 mi ESE 5.8 mph - N/A   Clear
4:55 PM 82.4 °F 81.7 °F 55.4 °F 39% 29.67 in 10.0 mi ESE 6.9 mph - N/A   Clear
5:15 PM 80.6 °F 80.3 °F 53.6 °F 39% 29.67 in 10.0 mi East 6.9 mph - N/A   Clear
5:35 PM 82.4 °F 81.4 °F 53.6 °F 37% 29.66 in 10.0 mi SE 5.8 mph - N/A   Clear
5:55 PM 78.8 °F - 57.2 °F 47% 29.66 in 10.0 mi East 4.6 mph - N/A   Clear
6:15 PM 77.0 °F - 55.4 °F 47% 29.66 in 10.0 mi ESE 6.9 mph - N/A   Clear
6:35 PM 75.2 °F - 55.4 °F 50% 29.66 in 10.0 mi ESE 4.6 mph - N/A   Clear
6:55 PM 73.4 °F - 55.4 °F 53% 29.66 in 10.0 mi ESE 5.8 mph - N/A   Clear
7:15 PM 73.4 °F - 53.6 °F 50% 29.67 in 10.0 mi SSE 4.6 mph - N/A   Clear
7:35 PM 71.6 °F - 53.6 °F 53% 29.67 in 10.0 mi SSE 3.5 mph - N/A   Clear
7:55 PM 68.0 °F - 53.6 °F 60% 29.68 in 10.0 mi Calm Calm - N/A   Clear
8:15 PM 64.4 °F - 53.6 °F 68% 29.68 in 9.0 mi Calm Calm - N/A   Clear
8:35 PM 59.0 °F - 53.6 °F 82% 29.68 in 9.0 mi NE 3.5 mph - N/A   Clear
8:55 PM 55.4 °F - 53.6 °F 94% 29.69 in 9.0 mi ENE 3.5 mph - N/A   Clear
9:15 PM 55.4 °F - 53.6 °F 94% 29.70 in 9.0 mi North 4.6 mph - N/A   Clear
9:35 PM 55.4 °F - 53.6 °F 94% 29.71 in 9.0 mi Calm Calm - N/A   Clear
9:55 PM 53.6 °F - 53.6 °F 100% 29.71 in 9.0 mi North 4.6 mph - N/A   Clear
10:15 PM 53.6 °F - 53.6 °F 100% 29.72 in 8.0 mi Calm Calm - N/A   Clear
10:35 PM 53.6 °F - 53.6 °F 100% 29.72 in 9.0 mi NNW 6.9 mph - N/A   Clear
10:55 PM 53.6 °F - 53.6 °F 100% 29.72 in 8.0 mi North 4.6 mph - N/A   Clear
11:15 PM 53.6 °F - 53.6 °F 100% 29.72 in 8.0 mi North 4.6 mph - N/A   Clear
11:35 PM 53.6 °F - 53.6 °F 100% 29.72 in 8.0 mi North 5.8 mph - N/A   Clear
11:55 PM 53.6 °F - 53.6 °F 100% 29.72 in 8.0 mi North 6.9 mph - N/A   Clear